Tracking 19199 objects as of 25-Jun-2018
HD Live streaming from Space Station
objects crossing your sky now

FENGYUN 1C DEB

Track FENGYUN 1C DEB now!
10-day predictions


NORAD ID: 31929
Int'l Code: 1999-025CME
Perigee: 745.2 km
Apogee: 864.1 km
Inclination: 98.7 °
Period: 100.8 minutes
Semi major axis: 7175 km
RCS: 0.0033 m2 (small)
Launch date: May 10, 1999
Source: People's Republic of China (PRC)
Launch site: Taiyaun Space Center, China (TSC)

Note: This is SATELLITE DEBRIS
aabbcc
Your satellite tracking list
Your tracking list is empty




NASA's NSSDC Master Catalog

Two Line Element Set (TLE):
1 31929U 99025CME 18174.03240008 +.00000135 +00000-0 +68851-4 0  9998
2 31929 098.6871 265.5355 0082843 129.1053 231.7532 14.28272570316339
Source of the keplerian elements: AFSPC